Regional Weather Roundup
Issued by NWS

Home | Current Version | Previous Version | Graphics & Text | Print | Product List | Glossary On
Versions: 1 2 3 4 5 6 7 8 9 10 11 12 13 14 15 16 17 18 19 20 21 22 23 24 25 26 27 28 29 30 31 32 33 34 35 36 37 38 39 40 41 42 43 44 45 46 47 48 49 50
831
ASUS43 KMPX 192110
RWRMN
WEATHER ROUNDUP FOR MINNESOTA
NATIONAL WEATHER SERVICE TWIN CITIES/CHANHASSEN MN
300 PM CST SUN NOV 19 2017


NOTE: "FAIR" INDICATES FEW OR NO CLOUDS BELOW 12,000 FEET WITH NO
SIGNIFICANT WEATHER AND/OR OBSTRUCTIONS TO VISIBILITY. N/A MEANS
CURRENT SKY AND/OR WEATHER CONDITIONS ARE NOT AVAILABLE.

MNZ060>063-068>070-192200-
   Twin Cities Metro

CITY           SKY/WX    TMP DP  RH WIND       PRES   REMARKS
TWIN CITIES    MOSUNNY   40  23  50 SW10      29.91F
ST PAUL        SUNNY     40  21  46 SW8       29.92F
CRYSTAL        SUNNY     39  20  46 SW7       29.90F
LAKEVILLE      SUNNY     39  25  56 SW5       29.91F
EDEN PRAIRIE   SUNNY     43  23  45 SW7       29.90F
SOUTH ST PAUL  SUNNY     41  21  44 SW9       29.91F
LAKE ELMO      FAIR      37  23  56 S7        29.92F
$$
MNZ001>005-007-008-013>017-022>024-027-028-192200-
   Northwest Minnesota

CITY           SKY/WX    TMP DP  RH WIND       PRES   REMARKS
BEMIDJI        SUNNY     32  19  59 S6        29.79F WCI  26
HALLOCK        SUNNY     25  19  80 CALM      29.81S
ROSEAU         SUNNY     27  19  74 CALM      29.80F
WARROAD        CLOUDY    27  16  63 CALM      29.81F
THIEF RVR FALL SUNNY     33  23  66 SW8       29.80S WCI  26
CROOKSTON      SUNNY     36  25  64 SW7       29.81S
FOSSTON        SUNNY     36  25  64 SW9       29.80S
DETROIT LAKES  SUNNY     39  27  60 SW7       29.81F
MOORHEAD       SUNNY     45  25  45 W7        29.81S
PARK RAPIDS    SUNNY     38  23  55 SW9       29.79F
MAHNOMEN       FAIR      38  24  59 SW9       29.80S
$$
MNZ006-009>011-018-025>026-192200-
   North Central Minnesota

CITY           SKY/WX    TMP DP  RH WIND       PRES   REMARKS
BAUDETTE       MOSUNNY   21  13  71 S3        29.80F
FLAG ISLAND    MOSUNNY   21  16  79 S9        29.81S WCI  11
INTL FALLS     CLOUDY    21  11  65 SW5       29.83S WCI  15
WASKISH        CLOUDY    27  16  63 E5        29.81F WCI  21
BIG FORK       CLOUDY    25  14  63 CALM      29.81F
LONGVILLE      SUNNY     32  18  55 SE3       29.82F
GRAND RAPIDS   CLOUDY    28  16  60 S3        29.85F
CRANE LAKE     CLOUDY    18  10  73 SW5       29.85S WCI  11
ORR            CLOUDY    19  12  73 CALM      29.80F
COOK           CLOUDY    19  16  86 SW3       29.83F
WALKER         FAIR      33  19  56 SE3       29.80F
$$
MNZ012-019>021-037-192200-
   Northeast Minnesota

CITY           SKY/WX    TMP DP  RH WIND       PRES   REMARKS
DULUTH         CLOUDY    22  13  68 W8        29.83F WCI  12
ELY            PTSUNNY   19   9  63 SW7       29.81F WCI  10
HIBBING        CLOUDY    20  13  74 CALM      29.83F
EVELETH        CLOUDY    19  12  73 CALM      29.84F
DULUTH HARBOR  CLOUDY    27  16  63 SW6       29.90F WCI  20
TWO HARBORS    CLOUDY    27  18  69 SW6       29.84F WCI  20
SILVER BAY     PTSUNNY   23  14  68 CALM      29.83S
GRAND MARAIS     N/A     25  10  53 W6        29.86F WCI  18
G MARAIS ARPRT CLOUDY    18   7  62 W3        29.77F
$$
MNZ029>031-032-039>041-046>048-054>057-064-192200-
   West Central Minnesota

CITY           SKY/WX    TMP DP  RH WIND       PRES   REMARKS
FERGUS FALLS   SUNNY     45  27  49 S6        29.83F
WHEATON        SUNNY     48  21  34 SW13      29.83F
MORRIS         CLOUDY    48  27  43 SW14G21   29.82F
ALEXANDRIA     SUNNY     42  27  55 SW9       29.83F
ELBOW LAKE     FAIR      46  29  52 W9        29.82F
WADENA         SUNNY     37  25  60 SW8       29.81S
GLENWOOD       SUNNY     45  28  53 SW9       29.84F
APPLETON       CLOUDY    52  21  30 SW16      29.84F
BENSON         CLOUDY    50  25  37 W10       29.85F
ORTONVILLE     SUNNY     52  21  30 MISG      29.83F
MADISON        SUNNY     54  21  28 SW16G23   29.85F
WILLMAR        FAIR      48  30  49 SW13      29.87F
$$
MNZ033>034-036-042>043-049>051-058-059-192200-
   Central Minnesota

CITY           SKY/WX    TMP DP  RH WIND       PRES   REMARKS
ST CLOUD       SUNNY     40  25  55 SW12      29.86F
SAUK CENTRE    FAIR      41  27  57 SW9       29.84F
PAYNESVILLE    SUNNY     42  29  62 S8        29.86F
AITKIN         SUNNY     30  18  59 S3        29.83S
PINE RIVER     SUNNY     36  21  55 SW3       29.85F
BRAINERD       SUNNY     37  20  50 SW9       29.84F
STAPLES        SUNNY     37  21  52 S6        29.82F
LONG PRAIRIE   FAIR      37  27  65 S12G17    29.84F
LITTLE FALLS   SUNNY     37  18  44 S7        29.85F
LITCHFIELD     SUNNY     45  28  53 SW5       29.87F
BUFFALO        SUNNY     41  25  51 SW7       29.89F
MAPLE LAKE     SUNNY     43  27  54 SW8       29.89F
HUTCHINSON     SUNNY     46  29  49 SW7       29.89F
$$
MNZ037-044-045-052-053-192200-
   East Central Minnesota

CITY           SKY/WX    TMP DP  RH WIND       PRES   REMARKS
PRINCETON      SUNNY     39  23  52 S9        29.88F
MORA           SUNNY     34  19  55 SW8       29.89S WCI  27
CAMBRIDGE      SUNNY     39  23  52 S9        29.89F
RUSH CITY      SUNNY     34  18  51 S9        29.89F WCI  27
MOOSE LAKE     SUNNY     32  16  51 S5        29.85F WCI  27
HINCKLEY       FAIR      32  19  59 S6        29.88F WCI  26
CLOQUET        CLOUDY    25  16  68 S6        29.85F WCI  18
MCGREGOR       SUNNY     32  19  59 SW6       29.86R WCI  26
$$
MNZ071>073-080-081-089-090-097-098-192200-
   Southwest Minnesota

CITY           SKY/WX    TMP DP  RH WIND       PRES   REMARKS
MONTEVIDEO     CLOUDY    54  25  32 W13G18    29.86F
GRANITE FALLS  SUNNY     52  26  36 SW15G23   29.89F
CANBY          SUNNY     51  23  33 SW14G22   29.87F
MARSHALL       SUNNY     51  23  33 SW18      29.88F
REDWOOD FALLS  SUNNY     51  23  33 SW13      29.88F
OLIVIA         SUNNY     50  27  40 W14       29.86F
PIPESTONE      SUNNY     46  23  39 SW13      29.89F
WINDOM         SUNNY     48  27  43 SW15G21   29.92F
WORTHINGTON    SUNNY     48  25  40 SW14      29.92F
JACKSON        SUNNY     48  23  37 W14       29.94F
SLAYTON        SUNNY     49  23  36 SW17      29.91F
$$
MNZ065>067-074>077-082>085-091>093-192200-
   South Central Minnesota

CITY           SKY/WX    TMP DP  RH WIND       PRES   REMARKS
MANKATO        SUNNY     47  25  42 W14       29.91F
NEW ULM        SUNNY     50  23  34 W8        29.90F
ST JAMES       SUNNY     50  25  37 SW13      29.93F
FAIRMONT       SUNNY     49  25  39 W12       29.94F
GLENCOE        SUNNY     46  27  47 SW7       29.89F
FARIBAULT      SUNNY     43  25  49 S9        29.93F
OWATONNA       SUNNY     43  27  52 SW12      29.93F
WASECA         SUNNY     43  27  52 SW10      29.94F
ALBERT LEA     SUNNY     43  25  49 SW12      29.96F
$$
MNZ078>079-086>088-094>096-192200-
   Southeast Minnesota

CITY           SKY/WX    TMP DP  RH WIND       PRES   REMARKS
ROCHESTER      SUNNY     38  25  59 SW14      29.96F
RED WING       SUNNY     39  18  41 SW8       29.93F
STANTON        SUNNY     42  25  51 SW14      29.92F
DODGE CENTER   SUNNY     39  25  56 SW15      29.93F
WINONA         SUNNY     37  21  52 SW7       29.97F
AUSTIN           N/A     39  25  56 SW14      29.96F
PRESTON        SUNNY     37  22  54 SW15      29.98F
$$
ABBREVIATIONS USED IN REMARKS
   TC - TEMPERATURES IN CELSIUS
  WCI - WIND CHILL INDEX
   HX - HEAT INDEX
  VSB - VISIBILITY
$$




USA.gov is the U.S. government's official web portal to all federal, state and local government web resources and services.